timestamp,wind_dir_avg,wind_spd_avg,wind_spd_max_dir,wind_spd_gust,battery_voltage,lat,long
2024-03-07 00:04:00+00:00,174.0,1.79,175.0,2.04,12.17,47.59359,-54.27349
2024-03-07 00:14:00+00:00,157.0,1.86,155.0,2.32,12.17,47.59359,-54.27349
2024-03-07 00:24:00+00:00,160.0,1.62,159.0,1.75,12.17,47.59359,-54.27349
2024-03-07 00:34:00+00:00,126.0,0.4,145.0,0.93,12.17,47.59359,-54.27349
2024-03-07 00:44:00+00:00,339.0,0.43,327.0,0.81,12.17,47.59359,-54.27349
2024-03-07 00:54:00+00:00,345.0,2.69,349.0,3.01,12.17,47.59359,-54.27349
2024-03-07 01:04:00+00:00,338.0,2.99,338.0,3.31,12.17,47.59359,-54.27349
2024-03-07 01:14:00+00:00,357.0,3.33,356.0,3.41,12.17,47.59359,-54.27349
2024-03-07 01:24:00+00:00,351.0,3.7,352.0,3.85,12.17,47.59359,-54.27349
2024-03-07 01:34:00+00:00,356.0,4.41,356.0,4.42,12.17,47.59359,-54.27349
2024-03-07 01:44:00+00:00,8.0,3.94,8.0,4.4,12.17,47.59359,-54.27349
2024-03-07 01:54:00+00:00,11.0,2.49,12.0,2.76,12.17,47.59359,-54.27349
2024-03-07 02:04:00+00:00,347.0,2.59,347.0,2.8,12.17,47.59359,-54.27349
2024-03-07 02:14:00+00:00,340.0,3.35,339.0,3.72,12.17,47.59359,-54.27349
2024-03-07 02:24:00+00:00,5.0,3.18,12.0,3.67,12.17,47.59359,-54.27349
2024-03-07 02:34:00+00:00,50.0,1.27,77.0,2.66,12.17,47.59359,-54.27349
2024-03-07 02:44:00+00:00,109.0,0.86,133.0,1.67,12.17,47.59359,-54.27349
2024-03-07 02:54:00+00:00,120.0,0.85,129.0,1.02,12.17,47.59359,-54.27349
2024-03-07 03:04:00+00:00,1.0,0.64,350.0,1.11,12.17,47.59359,-54.27349
2024-03-07 03:14:00+00:00,301.0,0.57,310.0,0.77,12.09,47.59359,-54.27349
2024-03-07 03:24:00+00:00,332.0,2.37,338.0,2.62,12.09,47.59359,-54.27349
2024-03-07 03:34:00+00:00,358.0,3.75,355.0,4.17,12.09,47.59359,-54.27349
2024-03-07 03:44:00+00:00,18.0,2.4,18.0,2.7,12.09,47.59359,-54.27349
2024-03-07 03:54:00+00:00,58.0,1.02,53.0,1.21,12.09,47.59359,-54.27349
2024-03-07 04:04:00+00:00,90.0,1.72,85.0,2.52,12.09,47.59359,-54.27349
2024-03-07 04:14:00+00:00,173.0,1.17,181.0,1.64,12.09,47.59359,-54.27349
2024-03-07 04:24:00+00:00,175.0,0.37,182.0,0.44,12.09,47.59359,-54.27349
2024-03-07 04:34:00+00:00,59.0,1.05,40.0,1.31,12.09,47.59359,-54.27349
2024-03-07 04:44:00+00:00,2.0,1.12,2.0,1.15,12.09,47.59359,-54.27349
2024-03-07 04:54:00+00:00,348.0,0.54,352.0,0.79,12.09,47.59359,-54.27349
2024-03-07 05:04:00+00:00,133.0,0.59,142.0,0.84,12.09,47.59359,-54.27349
2024-03-07 05:14:00+00:00,24.0,1.15,21.0,1.59,12.01,47.59359,-54.27349
2024-03-07 05:24:00+00:00,52.0,1.06,43.0,1.61,12.01,47.59359,-54.27349
2024-03-07 05:34:00+00:00,6.0,1.93,7.0,2.01,12.01,47.59359,-54.27349
2024-03-07 05:44:00+00:00,15.0,1.19,11.0,1.65,12.01,47.59359,-54.27349
2024-03-07 05:54:00+00:00,1.0,3.13,4.0,3.35,12.01,47.59359,-54.27349
2024-03-07 06:04:00+00:00,9.0,3.92,15.0,4.53,12.01,47.59359,-54.27349
2024-03-07 06:14:01+00:00,17.0,4.27,16.0,4.77,12.01,47.59359,-54.27349
2024-03-07 06:24:01+00:00,17.0,3.99,28.0,4.67,12.01,47.59359,-54.27349
2024-03-07 06:34:01+00:00,37.0,5.91,38.0,6.98,12.01,47.59359,-54.27349
2024-03-07 06:44:01+00:00,53.0,4.46,50.0,4.89,12.01,47.59359,-54.27349
2024-03-07 06:54:01+00:00,53.0,3.71,55.0,4.7,12.01,47.59359,-54.27349
2024-03-07 07:04:01+00:00,17.0,2.94,48.0,4.19,12.01,47.59359,-54.27349
2024-03-07 07:14:00+00:00,45.0,4.05,50.0,4.94,12.01,47.59359,-54.27349
2024-03-07 07:24:00+00:00,46.0,5.2,41.0,5.76,12.01,47.59359,-54.27349
2024-03-07 07:34:00+00:00,53.0,6.01,61.0,8.1,12.01,47.59359,-54.27349
2024-03-07 07:44:00+00:00,50.0,7.11,62.0,9.82,12.01,47.59359,-54.27349
2024-03-07 07:54:00+00:00,23.0,6.92,30.0,8.56,12.01,47.59359,-54.27349
2024-03-07 08:04:00+00:00,21.0,7.87,29.0,8.84,12.01,47.59359,-54.27349
2024-03-07 08:14:00+00:00,348.0,7.07,350.0,8.11,11.93,47.59359,-54.27349
2024-03-07 08:24:00+00:00,346.0,6.18,345.0,6.98,11.93,47.59359,-54.27349
2024-03-07 08:34:00+00:00,18.0,5.97,26.0,7.32,11.93,47.59359,-54.27349
2024-03-07 08:44:00+00:00,25.0,6.5,28.0,7.64,11.93,47.59359,-54.27349
2024-03-07 08:54:00+00:00,49.0,8.16,58.0,10.44,11.93,47.59359,-54.27349
2024-03-07 09:04:00+00:00,59.0,10.32,59.0,11.62,11.93,47.59359,-54.27349
2024-03-07 09:14:00+00:00,62.0,10.98,61.0,11.9,11.93,47.59359,-54.27349
2024-03-07 09:24:00+00:00,59.0,9.66,60.0,10.93,11.93,47.59359,-54.27349
2024-03-07 09:34:00+00:00,57.0,10.94,58.0,11.83,11.93,47.59359,-54.27349
2024-03-07 09:44:00+00:00,48.0,9.38,55.0,11.91,11.93,47.59359,-54.27349
2024-03-07 09:54:00+00:00,65.0,8.57,64.0,11.04,11.93,47.59359,-54.27349
2024-03-07 10:04:00+00:00,61.0,10.11,60.0,10.95,11.93,47.59359,-54.27349
2024-03-07 11:14:00+00:00,72.0,8.7,72.0,9.73,11.93,47.59359,-54.27349
2024-03-07 11:24:00+00:00,67.0,6.78,71.0,9.85,11.93,47.59359,-54.27349
2024-03-07 11:34:00+00:00,70.0,8.56,70.0,9.99,11.93,47.59359,-54.27349
2024-03-07 11:44:00+00:00,75.0,6.59,78.0,9.37,11.93,47.59359,-54.27349
2024-03-07 11:54:00+00:00,58.0,5.55,65.0,7.05,11.93,47.59359,-54.27349
2024-03-07 12:04:00+00:00,73.0,8.91,72.0,9.89,11.93,47.59359,-54.27349
2024-03-07 12:14:00+00:00,74.0,6.92,78.0,9.44,11.93,47.59359,-54.27349
2024-03-07 12:24:00+00:00,76.0,3.62,69.0,4.43,11.93,47.59359,-54.27349
2024-03-07 12:34:00+00:00,73.0,3.63,59.0,4.67,11.93,47.59359,-54.27349
2024-03-07 12:44:00+00:00,79.0,3.19,71.0,4.54,11.93,47.59359,-54.27349
2024-03-07 12:54:00+00:00,82.0,3.58,74.0,4.61,11.93,47.59359,-54.27349
2024-03-07 13:04:00+00:00,86.0,3.69,92.0,4.72,11.93,47.59359,-54.27349
2024-03-07 13:14:01+00:00,71.0,3.29,61.0,4.29,12.49,47.59359,-54.27349
2024-03-07 13:24:01+00:00,74.0,2.76,88.0,3.86,12.49,47.59359,-54.27349
2024-03-07 13:34:01+00:00,82.0,2.16,87.0,3.66,12.49,47.59359,-54.27349
2024-03-07 13:44:01+00:00,91.0,3.26,104.0,4.19,12.49,47.59359,-54.27349
2024-03-07 13:54:01+00:00,86.0,2.68,77.0,3.94,12.49,47.59359,-54.27349
2024-03-07 14:04:01+00:00,102.0,3.41,92.0,5.21,12.49,47.59359,-54.27349
2024-03-07 14:14:01+00:00,72.0,3.16,115.0,4.3,13.37,47.59359,-54.27349
2024-03-07 14:24:01+00:00,67.0,4.22,71.0,5.37,13.37,47.59359,-54.27349
2024-03-07 14:34:01+00:00,69.0,4.94,73.0,5.82,13.37,47.59359,-54.27349
2024-03-07 14:44:01+00:00,67.0,3.93,51.0,5.01,13.37,47.59359,-54.27349
2024-03-07 14:54:01+00:00,83.0,2.94,54.0,4.03,13.37,47.59359,-54.27349
2024-03-07 15:04:01+00:00,73.0,3.36,65.0,4.96,13.37,47.59359,-54.27349
2024-03-07 15:14:01+00:00,62.0,4.95,64.0,5.72,13.44,47.59359,-54.27349
2024-03-07 15:24:01+00:00,78.0,3.67,96.0,5.42,13.44,47.59359,-54.27349
2024-03-07 15:34:01+00:00,68.0,4.96,68.0,5.37,13.44,47.59359,-54.27349
2024-03-07 15:44:01+00:00,83.0,2.99,97.0,4.28,13.44,47.59359,-54.27349
2024-03-07 15:54:01+00:00,73.0,3.97,87.0,4.88,13.44,47.59359,-54.27349
2024-03-07 16:04:01+00:00,63.0,4.59,60.0,5.13,13.44,47.59359,-54.27349
2024-03-07 16:14:00+00:00,58.0,5.53,55.0,6.04,13.6,47.59359,-54.27349
2024-03-07 16:24:00+00:00,63.0,5.08,73.0,5.98,13.6,47.59359,-54.27349
2024-03-07 16:34:00+00:00,65.0,4.76,63.0,5.05,13.6,47.59359,-54.27349
2024-03-07 16:44:00+00:00,59.0,4.98,52.0,5.7,13.6,47.59359,-54.27349
2024-03-07 16:54:00+00:00,61.0,4.97,53.0,5.61,13.6,47.59359,-54.27349
2024-03-07 17:04:00+00:00,60.0,5.41,59.0,6.02,13.6,47.59359,-54.27349
2024-03-07 17:14:01+00:00,56.0,4.95,55.0,5.47,13.6,47.59359,-54.27349
2024-03-07 17:24:01+00:00,71.0,4.45,69.0,4.97,13.6,47.59359,-54.27349
2024-03-07 17:34:01+00:00,65.0,3.41,57.0,4.64,13.6,47.59359,-54.27349
2024-03-07 17:44:01+00:00,67.0,4.07,67.0,4.5,13.6,47.59359,-54.27349
2024-03-07 17:54:01+00:00,73.0,3.46,60.0,4.4,13.6,47.59359,-54.27349
2024-03-07 18:04:01+00:00,78.0,2.92,72.0,3.85,13.6,47.59359,-54.27349
2024-03-07 18:14:00+00:00,72.0,3.62,65.0,4.62,13.29,47.59359,-54.27349
2024-03-07 18:24:00+00:00,72.0,3.37,66.0,4.29,13.29,47.59359,-54.27349
2024-03-07 18:34:00+00:00,72.0,3.42,57.0,4.83,13.29,47.59359,-54.27349
2024-03-07 18:44:00+00:00,88.0,3.18,90.0,4.48,13.29,47.59359,-54.27349
2024-03-07 18:54:00+00:00,76.0,3.51,71.0,4.82,13.29,47.59359,-54.27349
2024-03-07 19:04:00+00:00,104.0,3.73,101.0,5.29,13.29,47.59359,-54.27349
2024-03-07 19:14:00+00:00,74.0,3.85,66.0,5.29,13.29,47.59359,-54.27349
2024-03-07 19:24:00+00:00,92.0,2.91,123.0,4.83,13.29,47.59359,-54.27349
2024-03-07 19:34:00+00:00,107.0,3.79,103.0,5.84,13.29,47.59359,-54.27349
2024-03-07 19:44:00+00:00,106.0,3.0,66.0,4.43,13.29,47.59359,-54.27349
2024-03-07 19:54:00+00:00,127.0,3.93,128.0,4.5,13.29,47.59359,-54.27349
2024-03-07 20:04:00+00:00,101.0,2.57,117.0,3.75,13.29,47.59359,-54.27349
2024-03-07 20:14:01+00:00,105.0,3.38,106.0,5.18,12.89,47.59359,-54.27349
2024-03-07 20:24:01+00:00,84.0,3.17,100.0,5.22,12.89,47.59359,-54.27349
2024-03-07 20:34:01+00:00,82.0,3.91,82.0,6.46,12.89,47.59359,-54.27349
2024-03-07 20:44:01+00:00,75.0,3.78,64.0,5.33,12.89,47.59359,-54.27349
2024-03-07 20:54:01+00:00,77.0,4.02,57.0,5.31,12.89,47.59359,-54.27349
2024-03-07 21:04:01+00:00,75.0,5.73,82.0,7.84,12.89,47.59359,-54.27349
2024-03-07 21:14:00+00:00,76.0,5.12,68.0,6.86,12.49,47.59359,-54.27349
2024-03-07 21:24:00+00:00,70.0,7.62,66.0,8.7,12.49,47.59359,-54.27349
2024-03-07 21:34:00+00:00,70.0,8.13,72.0,9.39,12.49,47.59359,-54.27349
2024-03-07 21:44:00+00:00,71.0,6.84,64.0,8.96,12.49,47.59359,-54.27349
2024-03-07 21:54:00+00:00,72.0,7.34,70.0,9.39,12.49,47.59359,-54.27349
2024-03-07 22:04:00+00:00,77.0,6.34,83.0,8.77,12.49,47.59359,-54.27349
2024-03-07 22:14:01+00:00,75.0,6.46,75.0,9.38,12.25,47.59359,-54.27349
2024-03-07 22:24:01+00:00,78.0,6.13,93.0,11.48,12.25,47.59359,-54.27349
2024-03-07 22:34:01+00:00,82.0,5.09,104.0,8.22,12.25,47.59359,-54.27349
2024-03-07 22:44:01+00:00,70.0,5.59,71.0,7.44,12.25,47.59359,-54.27349
2024-03-07 22:54:01+00:00,74.0,11.08,72.0,14.41,12.25,47.59359,-54.27349
2024-03-07 23:04:01+00:00,72.0,10.32,77.0,13.71,12.25,47.59359,-54.27349
2024-03-07 23:14:00+00:00,71.0,7.43,86.0,12.95,12.17,47.59359,-54.27349
2024-03-07 23:24:00+00:00,70.0,9.23,75.0,12.36,12.17,47.59359,-54.27349
2024-03-07 23:34:00+00:00,72.0,11.71,68.0,14.37,12.17,47.59359,-54.27349
2024-03-07 23:44:00+00:00,70.0,10.86,73.0,14.67,12.17,47.59359,-54.27349
2024-03-07 23:54:00+00:00,73.0,11.5,76.0,14.56,12.17,47.59359,-54.27349
